Regional Weather Roundup
Issued by NWS

Home | Current Version | Previous Version | Text Only | Print | Product List | Glossary On
Versions: 1 2 3 4 5 6 7 8 9 10 11 12 13 14 15 16 17 18 19 20 21 22 23 24 25 26 27 28 29 30 31 32 33 34 35 36 37 38 39 40 41 42 43 44 45 46 47 48 49 50
000
ASUS43 KOAX 281710
RWRNE

WEATHER ROUNDUP FOR NEBRASKA
NATIONAL WEATHER SERVICE OMAHA NE
1100 AM CST WED JAN 28 2015

NOTES: SATELLITE DATA IS BEING USED TO AUGMENT CLOUD COVER ABOVE
       12000 FEET.
       "FAIR" INDICATES FEW OR NO CLOUDS BELOW 12,000 FEET WITH NO
       SIGNIFICANT WEATHER AND/OR OBSTRUCTIONS TO VISIBILITY.

  * THESE STATIONS DO NOT REPORT WEATHER SUCH AS RAIN...SNOW OR FOG.

NEZ001>004-019>022-054>056-281800-
NEBRASKA PANHANDLE

CITY           SKY/WX    TMP DP  RH WIND       PRES   REMARKS
SCOTTSBLUFF      N/A    N/A N/A N/A MISG      29.97S
ALLIANCE       SUNNY     53  34  48 W26G36    29.91S
CHADRON        PTSUNNY   54  35  48 W25G36    29.91R
KIMBALL        SUNNY     53  28  37 NW31G44   29.99R
SIDNEY         SUNNY     56  30  37 NW28G44   29.97S
$$

NEZ057>060-069>072-079>082-281800-
SOUTHWEST NEBRASKA

CITY           SKY/WX    TMP DP  RH WIND       PRES   REMARKS
NORTH PLATTE   PTSUNNY   55  34  45 W20       29.86S
IMPERIAL       PTSUNNY   60  32  34 NW22G35   29.92R
LEXINGTON      PTSUNNY   53  36  51 W16       29.82F
MCCOOK         CLOUDY    56  35  45 W20G25    29.89R
OGALLALA       MOSUNNY   58  34  41 NW30G40   29.90R
$$

NEZ005>010-023>029-035>040-094-281800-
NORTH CENTRAL NEBRASKA

CITY           SKY/WX    TMP DP  RH WIND       PRES   REMARKS
VALENTINE      SUNNY     56  32  40 NW18G24   29.78S
AINSWORTH      MOSUNNY   55  32  41 W18G26    29.76S
BROKEN BOW     PTSUNNY   57  34  41 NW20G30   29.79S
O`NEILL        PTSUNNY   55  37  51 W10       29.74S
ORD            PTSUNNY   46  35  65 CALM      29.75F
THEDFORD       MOSUNNY   59  33  37 W18G28    29.82S
$$

NEZ041-046>049-061>064-073>077-083>087-281800-
SOUTH CENTRAL NEBRASKA

CITY           SKY/WX    TMP DP  RH WIND       PRES   REMARKS
GRAND ISLAND   PTSUNNY   45  34  65 VRB5      29.79F
AURORA         MOSUNNY   43  33  69 W7        29.79S
HASTINGS       PTSUNNY   51  33  50 W3        29.79F
HEBRON         MOSUNNY   49  33  55 W8        29.79F
HOLDREGE       CLOUDY    59  31  35 NW21G29   29.82S
KEARNEY *      PTSUNNY   50  36  57 SW3       29.79F
YORK           SUNNY     45  34  65 W10       29.80R
$$

NEZ011>018-030>034-042>045-281800-
NORTHEAST NEBRASKA

CITY           SKY/WX    TMP DP  RH WIND       PRES   REMARKS
NORFOLK        MOSUNNY   43  33  68 S9        29.76F
ALBION         MOSUNNY   42  33  70 CALM      29.77F
BLAIR          PTSUNNY   43  32  64 SE10G16   29.78F
COLUMBUS *     MOSUNNY   43  30  61 W5        29.81S
FREMONT        PTSUNNY   43  32  65 SE8       29.79F
TEKAMAH        PTSUNNY   40  32  73 SE14      29.81F WCI  32
WAYNE          PTSUNNY   39  33  77 S12       29.78F WCI  32
$$

NEZ050>053-065>068-078-088>093-281800-
SOUTHEAST NEBRASKA

CITY           SKY/WX    TMP DP  RH WIND       PRES   REMARKS
LINCOLN        MOSUNNY   45  32  60 CALM      29.80F
OMAHA EPPLEY   PTSUNNY   42  32  67 S15       29.81F
BEATRICE       MOSUNNY   55  35  48 S13       29.74F
FALLS CITY     SUNNY     55  36  48 S13       29.82F
NEBRASKA CITY  MOSUNNY   49  30  48 S14       29.79F
PLATTSMOUTH    MOSUNNY   45  31  60 SE10      29.79F
$$

NEZ044-045-051>053-067-281800-
OMAHA AREA

CITY           SKY/WX    TMP DP  RH WIND       PRES   REMARKS
OMAHA EPPLEY   PTSUNNY   42  32  67 S15       29.81F
BLAIR          PTSUNNY   43  32  64 SE10G16   29.78F
FREMONT        PTSUNNY   43  32  65 SE8       29.79F
MILLARD        PTSUNNY   44  32  64 SE12G17   29.79F
OFFUTT AFB     PTSUNNY   43  32  65 SE14      29.80F
PLATTSMOUTH    MOSUNNY   45  31  60 SE10      29.79F
WAHOO          FAIR      43  32  63 S9        29.80R
$$


USA.gov is the U.S. government's official web portal to all federal, state and local government web resources and services.